EW4337 Weather Reports


Display with metric or nautical units.
time (UTC)temp
F
wind
direction
speed
MPH
gust
MPH
rain 1hr
in
rain 24hr
in
rain mn
in
humidity
%
barometer
mb
20210619144704 69 268 9.0 23.0 0.00 0.54 0.01 71 1014.9
20210619143704 69 293 6.0 29.0 0.00 0.54 0.01 73 1015.0
20210619142703 68 282 5.0 31.0 0.00 0.54 0.01 75 1015.0
20210619141703 68 288 7.0 12.0 0.00 0.54 0.01 75 1014.9
20210619140704 68 292 7.0 16.0 0.00 0.54 0.01 75 1014.7
20210619135704 68 259 7.0 28.0 0.00 0.54 0.01 74 1014.9
20210619134704 68 251 10.0 23.0 0.00 0.54 0.01 74 1014.7
20210619133704 69 274 10.0 33.0 0.00 0.54 0.01 73 1014.7
20210619132705 70 271 5.0 20.0 0.00 0.54 0.01 73 1014.6
20210619131704 70 250 7.0 26.0 0.00 0.54 0.01 72 1014.6
20210619130704 71 284 10.0 16.0 0.00 0.54 0.01 70 1014.6
20210619125704 71 260 7.0 13.0 0.00 0.54 0.01 71 1014.4
20210619124704 70 280 8.0 29.0 0.00 0.54 0.01 73 1014.4
20210619123706 70 252 14.0 35.0 0.00 0.54 0.01 74 1014.4
20210619122705 70 264 17.0 38.0 0.00 0.54 0.01 73 1014.3
20210619121705 70 251 7.0 18.0 0.00 0.54 0.01 72 1014.3
20210619120704 70 278 10.0 33.0 0.00 0.54 0.01 74 1014.3
20210619115704 70 241 11.0 26.0 0.00 0.54 0.01 73 1014.3
20210619114703 68 275 7.0 35.0 0.00 0.54 0.01 78 1014.5
20210619113705 68 247 5.0 32.0 0.00 0.54 0.01 79 1014.5
20210619112704 68 250 7.0 31.0 0.00 0.54 0.01 78 1014.6
20210619111705 69 253 9.0 26.0 0.00 0.54 0.01 78 1014.6
20210619110704 68 288 10.0 29.0 0.00 0.54 0.01 79 1014.5
20210619105705 69 261 5.0 16.0 0.00 0.54 0.01 79 1014.4
20210619104705 69 261 4.0 14.0 0.00 0.54 0.01 77 1014.4
20210619103704 69 193 9.0 25.0 0.00 0.54 0.01 77 1014.3
20210619102705 69 214 5.0 29.0 0.00 0.54 0.01 77 1014.3
20210619101705 70 241 7.0 22.0 0.00 0.54 0.01 76 1014.3
20210619100704 70 247 5.0 23.0 0.00 0.54 0.01 76 1014.3
20210619095704 70 230 7.0 14.0 0.00 0.54 0.01 78 1014.2
20210619094705 70 260 15.0 30.0 0.00 0.54 0.01 76 1014.1
20210619093705 71 288 13.0 35.0 0.00 0.54 0.01 74 1013.9
20210619092704 71 243 23.0 39.0 0.00 0.54 0.01 75 1013.8
20210619091705 69 271 13.0 33.0 0.00 0.54 0.01 78 1013.9
20210619090705 69 244 8.0 33.0 0.00 0.54 0.01 78 1013.8
20210619085704 69 270 13.0 37.0 0.00 0.54 0.01 78 1013.9
20210619084705 70 265 18.0 33.0 0.00 0.54 0.01 76 1013.8
20210619083704 70 262 9.0 30.0 0.00 0.54 0.01 78 1013.8
20210619082705 69 263 15.0 33.0 0.00 0.54 0.01 80 1013.8
20210619081704 67 258 18.0 31.0 0.00 0.54 0.01 84 1014.0
20210619080704 66 255 4.0 26.0 0.00 0.54 0.01 85 1014.1
20210619075704 66 270 12.0 31.0 0.00 0.54 0.01 86 1014.1
20210619074705 65 251 6.0 17.0 0.00 0.54 0.01 86 1014.1
20210619073703 66 257 7.0 31.0 0.00 0.54 0.01 86 1013.9
20210619072701 66 245 7.0 20.0 0.00 0.54 0.01 87 1013.9
20210619071702 66 245 7.0 17.0 0.00 0.54 0.01 87 1013.8
20210619070702 66 249 6.0 20.0 0.00 0.54 0.01 87 1013.6
20210619065702 66 232 10.0 35.0 0.00 0.54 0.01 86 1013.5
20210619064701 67 251 13.0 26.0 0.00 0.54 0.01 87 1013.4
20210619063703 67 243 20.0 32.0 0.00 0.54 0.01 87 1013.4
20210619062701 67 250 15.0 35.0 0.00 0.55 0.01 88 1013.2
20210619061703 67 267 7.0 29.0 0.00 0.55 0.01 88 1013.1
20210619060704 66 254 21.0 48.0 0.00 0.60 0.01 88 1013.0
20210619055702 66 249 6.0 24.0 0.00 0.60 0.01 89 1012.9
20210619054701 66 247 22.0 38.0 0.00 0.60 0.01 89 1012.8
20210619053702 66 264 10.0 17.0 0.00 0.60 0.01 91 1012.7
20210619052701 66 238 5.0 14.0 0.00 0.60 0.01 91 1012.6
20210619051701 66 239 2.0 21.0 0.00 0.60 0.01 92 1012.5
20210619050703 66 246 17.0 26.0 0.00 0.60 0.01 92 1012.4
20210619045702 66 241 0.0 24.0 0.00 0.60 0.01 92 1012.2
20210619044702 66 232 5.0 15.0 0.00 0.60 0.01 93 1012.1
20210619043702 65 196 1.0 10.0 0.00 0.60 0.01 92 1012.0
20210619042701 65 217 0.0 0.0 0.00 0.60 0.01 92 1011.8
20210619041702 65 232 0.0 0.0 0.00 0.60 0.01 92 1011.7
20210619040702 65 244 3.0 24.0 0.00 0.60 0.01 92 1011.5
20210619035703 65 235 0.0 0.0 0.00 0.60 0.01 92 1011.4
20210619034701 65 239 0.0 0.0 0.00 0.60 0.01 92 1011.4
20210619033701 65 239 1.0 20.0 0.00 0.60 0.01 92 1011.4
20210619032701 65 171 0.0 1.0 0.00 0.60 0.01 92 1011.3
20210619031702 65 223 0.0 14.0 0.00 0.60 0.01 93 1011.2
20210619030702 65 218 1.0 26.0 0.00 0.60 0.01 93 1011.1
20210619025703 65 190 5.0 26.0 0.00 0.60 0.01 93 1011.0
20210619024702 65 185 13.0 31.0 0.00 0.60 0.01 93 1010.9
20210619023702 65 173 1.0 28.0 0.00 0.60 0.01 93 1010.8
20210619022702 65 174 1.0 16.0 0.00 0.60 0.01 93 1010.9
20210619021702 65 168 0.0 22.0 0.00 0.60 0.01 93 1010.9
20210619020702 65 170 1.0 21.0 0.00 0.60 0.01 93 1011.0
20210619015702 65 185 0.0 23.0 0.00 0.60 0.01 93 1011.0
20210619014702 65 178 1.0 12.0 0.00 0.60 0.01 93 1011.1
20210619013704 65 165 1.0 15.0 0.00 0.60 0.01 93 1011.2
20210619012703 65 177 3.0 15.0 0.00 0.60 0.01 93 1011.2
20210619011702 65 117 0.0 3.0 0.00 0.60 0.01 93 1011.3
20210619010702 65 158 0.0 0.0 0.00 0.60 0.01 93 1011.4
20210619005702 65 155 0.0 12.0 0.00 0.60 0.01 93 1011.4
20210619004702 65 154 0.0 13.0 0.00 0.60 0.01 93 1011.4
20210619003703 65 132 0.0 6.0 0.00 0.60 0.01 93 1011.5
20210619002703 65 172 0.0 2.0 0.00 0.60 0.01 93 1011.5
20210619001702 65 181 0.0 0.0 0.00 0.60 0.01 93 1011.4
20210619000702 65 173 0.0 0.0 0.00 0.60 0.01 93 1011.4
20210618235704 65 151 1.0 32.0 0.00 0.60 0.01 93 1011.4
20210618234704 65 123 2.0 21.0 0.00 0.60 0.01 93 1011.3
20210618233702 65 174 0.0 14.0 0.00 0.60 0.01 93 1011.3
20210618232702 65 144 2.0 12.0 0.00 0.60 0.01 93 1011.3
20210618231703 65 129 0.0 10.0 0.00 0.60 0.01 93 1011.4
20210618230702 65 158 2.0 13.0 0.01 0.60 0.01 92 1011.4
20210618225703 65 117 0.0 3.0 0.01 0.60 0.01 92 1011.4
20210618224703 65 134 0.0 14.0 0.01 0.60 0.01 92 1011.5
20210618223703 65 111 3.0 13.0 0.02 0.60 0.01 92 1011.4
20210618222702 65 106 0.0 12.0 0.02 0.60 0.01 92 1011.4
20210618221703 65 86 0.0 0.0 0.02 0.60 0.01 92 1011.4
20210618220703 65 86 0.0 0.0 0.02 0.59 0.00 92 1011.4
20210618215703 65 86 0.0 0.0 0.03 0.59 0.59 92 1011.3
20210618214702 65 72 0.0 0.0 0.03 0.59 0.59 92 1011.5
20210618213702 65 72 0.0 0.0 0.03 0.58 0.58 92 1011.7
20210618212702 65 63 0.0 10.0 0.04 0.58 0.58 92 1011.8
20210618211703 65 64 0.0 0.0 0.04 0.57 0.57 91 1011.7
20210618210703 65 67 0.0 0.0 0.05 0.57 0.57 91 1011.6
20210618205705 65 54 0.0 0.0 0.05 0.56 0.56 91 1011.5
20210618204703 65 28 0.0 6.0 0.06 0.56 0.56 91 1011.2
20210618203703 65 341 0.0 6.0 0.06 0.55 0.55 90 1011.5
20210618202703 66 46 0.0 22.0 0.07 0.54 0.54 90 1011.3
20210618201706 66 329 1.0 17.0 0.08 0.54 0.54 90 1011.3
20210618200703 66 354 0.0 10.0 0.08 0.52 0.52 90 1011.6
20210618195704 66 11 2.0 26.0 0.09 0.51 0.51 90 1012.1
20210618194703 66 347 7.0 28.0 0.09 0.50 0.50 90 1012.0
20210618193704 67 352 4.0 22.0 0.11 0.49 0.49 90 1012.1
20210618192704 67 344 8.0 30.0 0.11 0.47 0.47 89 1011.7
20210618191703 67 330 5.0 26.0 0.11 0.46 0.46 89 1012.4
20210618190704 68 290 21.0 49.0 0.17 0.44 0.44 88 1011.6
20210618185704 69 297 30.0 47.0 0.28 0.43 0.43 89 1011.3
20210618184705 69 326 13.0 38.0 0.34 0.40 0.40 88 1011.2
20210618183704 70 302 1.0 18.0 0.31 0.38 0.38 88 1011.0
20210618182704 71 55 1.0 10.0 0.30 0.36 0.36 88 1010.2
20210618181704 71 353 3.0 17.0 0.28 0.35 0.35 87 1010.5
20210618180703 71 36 4.0 15.0 0.21 0.28 0.28 84 1010.2
20210618175705 73 133 14.0 31.0 0.08 0.14 0.14 81 1011.4
20210618174703 74 317 1.0 8.0 0.00 0.06 0.06 78 1010.2
20210618173703 74 348 1.0 7.0 0.00 0.06 0.06 75 1010.2
20210618172703 75 17 3.0 20.0 0.00 0.06 0.06 74 1009.7
20210618171704 75 51 2.0 18.0 0.00 0.06 0.06 73 1010.0
20210618170705 76 47 2.0 16.0 0.00 0.06 0.06 73 1010.3
20210618165703 76 80 3.0 20.0 0.00 0.06 0.06 72 1010.3
20210618164704 76 15 1.0 12.0 0.00 0.06 0.06 72 1010.5
20210618163703 77 45 4.0 14.0 0.00 0.06 0.06 71 1010.3
20210618162703 78 2 2.0 24.0 0.00 0.06 0.06 69 1010.6
20210618161703 79 12 9.0 30.0 0.00 0.06 0.06 67 1010.4
20210618160703 80 46 7.0 25.0 0.00 0.06 0.06 67 1010.4
20210618155703 81 36 8.0 26.0 0.00 0.06 0.06 66 1010.5
20210618154703 82 26 3.0 14.0 0.00 0.06 0.06 65 1010.7
20210618153704 82 66 9.0 24.0 0.00 0.06 0.06 65 1010.7
20210618152705 83 51 5.0 35.0 0.00 0.06 0.06 64 1010.9
20210618151704 83 52 4.0 12.0 0.00 0.06 0.06 64 1011.1
20210618150705 83 46 5.0 14.0 0.00 0.06 0.06 63 1011.3
20210618145703 84 52 4.0 23.0 0.00 0.06 0.06 63 1011.4